Time,TemperatureF,DewpointF,PressureIn,WindDirection,WindDirectionDegrees,WindSpeedMPH,WindSpeedGustMPH,Humidity,HourlyPrecipIn,Conditions,Clouds,dailyrainin,SoftwareType,DateUTC
2013-06-18 00:02:00,75.0,67.0,29.82,SSW,198,0.0,0.0,75,0.00,,,0.00,,2013-06-18 04:02:00,
2013-06-18 00:12:00,75.0,67.0,29.82,SSW,198,0.0,0.0,76,0.00,,,0.00,,2013-06-18 04:12:00,
2013-06-18 00:23:00,75.0,67.0,29.82,SSW,198,0.0,0.0,76,0.00,,,0.00,,2013-06-18 04:23:00,
2013-06-18 00:34:00,74.0,67.0,29.81,SSW,198,0.0,0.0,78,0.00,,,0.00,,2013-06-18 04:34:00,
2013-06-18 00:43:00,73.0,65.0,29.81,SSW,198,0.0,0.0,77,0.00,,,0.00,,2013-06-18 04:43:00,
2013-06-18 00:53:00,73.0,65.0,29.81,SSW,198,0.0,0.0,77,0.00,,,0.00,,2013-06-18 04:53:00,
2013-06-18 01:02:00,73.0,65.0,29.81,SSW,198,0.0,2.0,75,0.00,,,0.00,,2013-06-18 05:02:00,
2013-06-18 08:22:00,66.0,63.0,29.85,WSW,244,0.0,0.0,90,0.00,,,0.00,,2013-06-18 12:22:00,
2013-06-18 08:33:00,67.0,63.0,29.88,West,263,0.0,3.0,87,0.00,,,0.00,,2013-06-18 12:33:00,
2013-06-18 08:43:00,67.0,63.0,29.88,West,263,0.0,3.0,87,0.00,,,0.00,,2013-06-18 12:43:00,
2013-06-18 08:52:00,68.0,63.0,29.88,NW,304,0.0,2.0,83,0.00,,,0.00,,2013-06-18 12:52:00,
2013-06-18 09:02:00,68.0,63.0,29.88,WNW,291,0.0,3.0,83,0.00,,,0.00,,2013-06-18 13:02:00,
2013-06-18 09:12:00,68.0,63.0,29.88,WNW,291,0.0,3.0,83,0.00,,,0.00,,2013-06-18 13:12:00,
2013-06-18 09:22:00,68.0,63.0,29.87,ENE,57,0.0,2.0,83,0.00,,,0.00,,2013-06-18 13:22:00,
2013-06-18 09:33:00,70.0,64.0,29.87,NNE,29,0.0,4.0,80,0.00,,,0.00,,2013-06-18 13:33:00,
2013-06-18 09:43:00,70.0,64.0,29.87,NNE,29,0.0,4.0,80,0.00,,,0.00,,2013-06-18 13:43:00,
2013-06-18 09:53:00,72.0,64.0,29.88,WNW,302,1.0,4.0,77,0.00,,,0.00,,2013-06-18 13:53:00,
2013-06-18 10:02:00,73.0,65.0,29.89,NE,39,0.0,4.0,75,0.00,,,0.00,,2013-06-18 14:02:00,
2013-06-18 10:11:00,73.0,65.0,29.89,NE,39,0.0,4.0,75,0.00,,,0.00,,2013-06-18 14:11:00,
2013-06-18 10:33:00,72.0,63.0,29.88,NNW,334,2.0,7.0,74,0.00,,,0.00,,2013-06-18 14:33:00,
2013-06-18 10:43:00,72.0,63.0,29.88,NNW,334,2.0,7.0,74,0.00,,,0.00,,2013-06-18 14:43:00,
2013-06-18 10:53:00,72.0,63.0,29.87,NE,40,3.0,7.0,74,0.00,,,0.00,,2013-06-18 14:53:00,
2013-06-18 11:02:00,74.0,64.0,29.88,WNW,295,1.0,5.0,72,0.00,,,0.00,,2013-06-18 15:02:00,
2013-06-18 11:11:00,74.0,64.0,29.88,WNW,295,1.0,5.0,72,0.00,,,0.00,,2013-06-18 15:11:00,
2013-06-18 11:22:00,75.0,65.0,29.87,WNW,296,0.0,7.0,70,0.00,,,0.00,,2013-06-18 15:22:00,
2013-06-18 11:33:00,76.0,64.0,29.88,NNE,28,2.0,8.0,67,0.00,,,0.00,,2013-06-18 15:33:00,
2013-06-18 11:43:00,76.0,64.0,29.88,NNE,28,2.0,8.0,67,0.00,,,0.00,,2013-06-18 15:43:00,
2013-06-18 11:53:00,76.0,63.0,29.88,NE,44,2.0,7.0,64,0.00,,,0.00,,2013-06-18 15:53:00,
2013-06-18 12:01:00,77.0,63.0,29.88,NNE,26,1.0,8.0,63,0.00,,,0.00,,2013-06-18 16:01:00,
2013-06-18 12:11:00,77.0,63.0,29.88,NNE,26,1.0,8.0,63,0.00,,,0.00,,2013-06-18 16:11:00,
2013-06-18 12:22:00,78.0,63.0,29.88,West,271,1.0,7.0,61,0.00,,,0.00,,2013-06-18 16:22:00,
2013-06-18 12:33:00,78.0,63.0,29.88,ENE,62,1.0,7.0,61,0.00,,,0.00,,2013-06-18 16:33:00,
2013-06-18 12:43:00,78.0,63.0,29.88,ENE,62,1.0,7.0,61,0.00,,,0.00,,2013-06-18 16:43:00,
2013-06-18 12:53:00,79.0,62.0,29.88,NE,43,1.0,6.0,57,0.00,,,0.00,,2013-06-18 16:53:00,
2013-06-18 13:02:00,79.0,62.0,29.88,East,82,2.0,7.0,56,0.00,,,0.00,,2013-06-18 17:02:00,
2013-06-18 13:12:00,79.0,62.0,29.88,East,82,2.0,7.0,56,0.00,,,0.00,,2013-06-18 17:12:00,
2013-06-18 13:22:00,80.0,62.0,29.88,ENE,73,2.0,9.0,55,0.00,,,0.00,,2013-06-18 17:22:00,
2013-06-18 13:33:00,80.0,61.0,29.89,NE,38,0.0,5.0,53,0.00,,,0.00,,2013-06-18 17:33:00,
2013-06-18 13:43:00,80.0,61.0,29.89,NE,38,0.0,5.0,53,0.00,,,0.00,,2013-06-18 17:43:00,
2013-06-18 13:53:00,82.0,63.0,29.88,NE,49,0.0,4.0,52,0.00,,,0.00,,2013-06-18 17:53:00,
2013-06-18 14:02:00,82.0,61.0,29.88,NNE,33,0.0,7.0,50,0.00,,,0.00,,2013-06-18 18:02:00,
2013-06-18 14:11:00,82.0,61.0,29.88,NNE,33,0.0,7.0,50,0.00,,,0.00,,2013-06-18 18:11:00,
2013-06-18 14:22:00,81.0,61.0,29.87,ENE,59,2.0,8.0,51,0.00,,,0.00,,2013-06-18 18:22:00,
2013-06-18 14:33:00,82.0,63.0,29.87,NNE,28,2.0,6.0,53,0.00,,,0.00,,2013-06-18 18:33:00,
2013-06-18 14:42:00,82.0,63.0,29.87,NNE,28,2.0,6.0,53,0.00,,,0.00,,2013-06-18 18:42:00,
2013-06-18 14:53:00,82.0,62.0,29.86,ENE,71,1.0,6.0,51,0.00,,,0.00,,2013-06-18 18:53:00,
2013-06-18 15:01:00,83.0,64.0,29.87,WNW,302,1.0,9.0,52,0.00,,,0.00,,2013-06-18 19:01:00,
2013-06-18 15:11:00,83.0,64.0,29.87,WNW,302,1.0,9.0,52,0.00,,,0.00,,2013-06-18 19:11:00,
2013-06-18 15:22:00,82.0,63.0,29.87,NE,39,0.0,5.0,53,0.00,,,0.00,,2013-06-18 19:22:00,
2013-06-18 15:33:00,83.0,64.0,29.87,ENE,58,1.0,9.0,52,0.00,,,0.00,,2013-06-18 19:33:00,
2013-06-18 15:43:00,83.0,64.0,29.87,ENE,58,1.0,9.0,52,0.00,,,0.00,,2013-06-18 19:43:00,
2013-06-18 15:53:00,83.0,63.0,29.87,NNE,31,1.0,7.0,51,0.00,,,0.00,,2013-06-18 19:53:00,
2013-06-18 16:02:00,84.0,64.0,29.86,NNE,18,1.0,5.0,51,0.00,,,0.00,,2013-06-18 20:02:00,
2013-06-18 16:11:00,84.0,64.0,29.86,NNE,18,1.0,5.0,51,0.00,,,0.00,,2013-06-18 20:11:00,
2013-06-18 16:23:00,83.0,65.0,29.86,NE,38,1.0,5.0,55,0.00,,,0.00,,2013-06-18 20:23:00,
2013-06-18 16:33:00,83.0,64.0,29.85,NW,326,2.0,7.0,52,0.00,,,0.00,,2013-06-18 20:33:00,
2013-06-18 16:43:00,83.0,64.0,29.85,NW,326,2.0,7.0,52,0.00,,,0.00,,2013-06-18 20:43:00,
2013-06-18 16:52:00,81.0,65.0,29.86,NNW,343,1.0,8.0,58,0.00,,,0.00,,2013-06-18 20:52:00,
2013-06-18 17:01:00,81.0,65.0,29.86,NNE,13,2.0,8.0,58,0.00,,,0.00,,2013-06-18 21:01:00,
2013-06-18 17:11:00,81.0,65.0,29.86,NNE,13,2.0,8.0,58,0.00,,,0.00,,2013-06-18 21:11:00,
2013-06-18 17:23:00,80.0,64.0,29.85,North,360,1.0,5.0,58,0.00,,,0.00,,2013-06-18 21:23:00,
2013-06-18 17:33:00,80.0,63.0,29.85,NE,48,0.0,5.0,57,0.00,,,0.00,,2013-06-18 21:33:00,
2013-06-18 17:43:00,80.0,63.0,29.85,NE,48,0.0,5.0,57,0.00,,,0.00,,2013-06-18 21:43:00,
2013-06-18 17:52:00,81.0,64.0,29.85,ESE,113,1.0,7.0,56,0.00,,,0.00,,2013-06-18 21:52:00,
2013-06-18 18:01:00,82.0,63.0,29.85,NE,49,1.0,9.0,53,0.00,,,0.00,,2013-06-18 22:01:00,
2013-06-18 18:11:00,82.0,63.0,29.85,NE,49,1.0,9.0,53,0.00,,,0.00,,2013-06-18 22:11:00,
2013-06-18 18:22:00,81.0,62.0,29.85,NE,42,1.0,7.0,53,0.00,,,0.00,,2013-06-18 22:22:00,
2013-06-18 18:34:00,81.0,63.0,29.86,NNE,32,2.0,9.0,54,0.00,,,0.00,,2013-06-18 22:34:00,
2013-06-18 18:43:00,81.0,63.0,29.86,NNE,32,2.0,9.0,54,0.00,,,0.00,,2013-06-18 22:43:00,
2013-06-18 18:53:00,80.0,62.0,29.85,NE,44,3.0,6.0,54,0.00,,,0.00,,2013-06-18 22:53:00,
2013-06-18 19:02:00,80.0,62.0,29.85,NW,321,2.0,11.0,55,0.00,,,0.00,,2013-06-18 23:02:00,
2013-06-18 19:11:00,80.0,62.0,29.85,NW,321,2.0,11.0,55,0.00,,,0.00,,2013-06-18 23:11:00,
2013-06-18 19:23:00,80.0,62.0,29.86,NE,41,2.0,9.0,55,0.00,,,0.00,,2013-06-18 23:23:00,
2013-06-18 19:36:00,80.0,63.0,29.87,NE,53,1.0,8.0,56,0.00,,,0.00,,2013-06-18 23:36:00,
2013-06-18 19:46:00,80.0,63.0,29.87,NE,53,1.0,8.0,56,0.00,,,0.00,,2013-06-18 23:46:00,
2013-06-18 19:53:00,79.0,64.0,29.88,WSW,244,1.0,7.0,61,0.00,,,0.00,,2013-06-18 23:53:00,
2013-06-18 20:01:00,78.0,64.0,29.87,West,263,1.0,7.0,62,0.00,,,0.00,,2013-06-19 00:01:00,
2013-06-18 20:11:00,78.0,64.0,29.87,West,263,1.0,7.0,62,0.00,,,0.00,,2013-06-19 00:11:00,
2013-06-18 20:22:00,77.0,64.0,29.88,NE,36,1.0,8.0,65,0.00,,,0.00,,2013-06-19 00:22:00,
2013-06-18 20:33:00,76.0,64.0,29.88,NNW,329,1.0,6.0,66,0.00,,,0.00,,2013-06-19 00:33:00,
2013-06-18 20:43:00,76.0,64.0,29.88,NNW,329,1.0,6.0,66,0.00,,,0.00,,2013-06-19 00:43:00,
2013-06-18 20:53:00,75.0,64.0,29.88,North,9,0.0,4.0,68,0.00,,,0.00,,2013-06-19 00:53:00,
2013-06-18 21:01:00,73.0,62.0,29.88,WNW,298,0.0,7.0,68,0.00,,,0.00,,2013-06-19 01:01:00,
2013-06-18 21:11:00,73.0,62.0,29.88,WNW,298,0.0,7.0,68,0.00,,,0.00,,2013-06-19 01:11:00,
2013-06-18 21:22:00,73.0,62.0,29.88,WNW,298,0.0,7.0,68,0.00,,,0.00,,2013-06-19 01:22:00,
2013-06-18 21:32:00,72.0,61.0,29.89,West,268,1.0,5.0,69,0.00,,,0.00,,2013-06-19 01:32:00,
2013-06-18 21:42:00,72.0,62.0,29.89,NNE,21,0.0,3.0,70,0.00,,,0.00,,2013-06-19 01:42:00,
2013-06-18 21:53:00,72.0,62.0,29.89,NNE,21,0.0,3.0,70,0.00,,,0.00,,2013-06-19 01:53:00,
2013-06-18 22:01:00,72.0,62.0,29.89,NNE,21,0.0,3.0,70,0.00,,,0.00,,2013-06-19 02:01:00,
2013-06-18 22:11:00,72.0,62.0,29.89,NNE,21,0.0,3.0,70,0.00,,,0.00,,2013-06-19 02:11:00,
2013-06-18 22:21:00,71.0,61.0,29.90,ENE,67,0.0,3.0,71,0.00,,,0.00,,2013-06-19 02:21:00,
2013-06-18 22:32:00,71.0,61.0,29.90,ENE,67,0.0,3.0,71,0.00,,,0.00,,2013-06-19 02:32:00,
2013-06-18 22:42:00,69.0,60.0,29.93,WNW,293,0.0,3.0,73,0.00,,,0.00,,2013-06-19 02:42:00,
2013-06-18 22:52:00,69.0,60.0,29.93,WNW,293,0.0,3.0,73,0.00,,,0.00,,2013-06-19 02:52:00,
2013-06-18 23:01:00,69.0,60.0,29.93,WNW,293,0.0,3.0,73,0.00,,,0.00,,2013-06-19 03:01:00,
2013-06-18 23:11:00,67.0,59.0,29.94,NNW,348,0.0,3.0,75,0.00,,,0.00,,2013-06-19 03:11:00,
2013-06-18 23:22:00,67.0,59.0,29.94,NNW,348,0.0,3.0,75,0.00,,,0.00,,2013-06-19 03:22:00,
2013-06-18 23:33:00,67.0,59.0,29.94,ESE,106,0.0,3.0,75,0.00,,,0.00,,2013-06-19 03:33:00,
2013-06-18 23:42:00,67.0,59.0,29.94,ESE,106,0.0,3.0,75,0.00,,,0.00,,2013-06-19 03:42:00,
2013-06-18 23:52:00,66.0,59.0,29.94,NE,43,0.0,3.0,77,0.00,,,0.00,,2013-06-19 03:52:00,